Weather History for KFSO - September, 2012

Change the Weather History Date:

Sunday, September 2, 2012

  Actual Average (KPBG) Record (KPBG)
Temperature  
Mean Temperature 61 °F 64 °F  
Max Temperature 75 °F 76 °F 90 °F (2010)
Min Temperature 47 °F 53 °F 39 °F (1991)
Degree Days  
Heating Degree Days 4 3  
Month to date heating degree days 6  
Since 1 July heating degree days 47  
Cooling Degree Days 0 2  
Month to date cooling degree days 4  
Year to date cooling degree days 326  
Growing Degree Days 11 (Base 50)    
Moisture  
Dew Point 49 °F    
Average Humidity 67    
Maximum Humidity 92    
Minimum Humidity 33    
Precipitation  
Precipitation 0.00 in - 1.80 in (1977)
Month to date precipitation  
Year to date precipitation  
Sea Level Pressure  
Sea Level Pressure 30.09 in    
Wind  
Wind Speed 3 mph (East)    
Max Wind Speed 7 mph    
Max Gust Speed -    
Visibility 10 miles    
Events      
T = Trace of Precipitation, MM = Missing Value Source: NWS Daily Summary

Daily Weather History Graph

Daily Weather History Graph

Search for Another Location

Airport or City:

Trip Planner

Search our weather history database for the weather conditions in past years. The results will help you decide how hot, cold, wet, or windy it might be!

Date:

Astronomy

Sep. 02, 2012 Rise Set
Actual Time 6:16 AM EDT 7:26 PM EDT
Civil Twilight 5:46 AM EDT 7:56 PM EDT
Nautical Twilight 5:09 AM EDT 8:32 PM EDT
Astronomical Twilight 4:31 AM EDT 9:11 PM EDT
Moon 8:02 PM EDT (9/2) 8:30 AM EDT (9/2)
Length of Visible Light 14h 10m
Length of Day
13h 10m
Waning Gibbous, 95% of the Moon is Illuminated
Sep 2
Waning Gibbous
Sep 8
Last Quarter
Sep 15
New
Sep 22
First Quarter
Sep 29
Full

Hourly Weather History & Observations

Time (EDT) Temp. Dew Point Humidity Pressure Visibility Wind Dir Wind Speed Gust Speed Precip Events Conditions
12:15 AM 53.4 °F 48.0 °F 82% 30.09 in 10.0 mi ESE 3.5 mph - N/A   Clear
12:35 AM 52.7 °F 47.8 °F 84% 30.09 in 10.0 mi ESE 3.5 mph - N/A   Clear
12:55 AM 51.8 °F 47.7 °F 86% 30.09 in 10.0 mi SE 3.5 mph - N/A   Clear
1:15 AM 51.8 °F 47.7 °F 86% 30.08 in 10.0 mi Calm Calm - N/A   Clear
1:35 AM 51.8 °F 47.5 °F 85% 30.09 in 10.0 mi SE 3.5 mph - N/A   Clear
1:55 AM 51.8 °F 48.2 °F 88% 30.09 in 10.0 mi East 3.5 mph - N/A   Clear
2:15 AM 51.6 °F 48.0 °F 87% 30.09 in 10.0 mi SE 3.5 mph - N/A   Clear
2:35 AM 51.6 °F 48.4 °F 89% 30.09 in 10.0 mi ESE 3.5 mph - N/A   Clear
2:55 AM 51.3 °F 48.2 °F 89% 30.09 in 10.0 mi Calm Calm - N/A   Clear
3:15 AM 51.3 °F 48.4 °F 90% 30.08 in 10.0 mi ESE 3.5 mph - N/A   Clear
3:35 AM 49.3 °F 46.6 °F 90% 30.08 in 10.0 mi SE 3.5 mph - N/A   Clear
3:55 AM 49.3 °F 46.9 °F 92% 30.08 in 10.0 mi Calm Calm - N/A   Clear
4:15 AM 49.3 °F 46.9 °F 92% 30.08 in 10.0 mi ESE 3.5 mph - N/A   Clear
4:35 AM 49.3 °F 46.9 °F 92% 30.08 in 10.0 mi ESE 3.5 mph - N/A   Clear
5:15 AM 48.4 °F 46.0 °F 92% 30.08 in 10.0 mi ESE 3.5 mph - N/A   Clear
5:35 AM 48.2 °F 45.7 °F 91% 30.08 in 10.0 mi SE 3.5 mph - N/A   Clear
5:55 AM 47.7 °F 45.5 °F 92% 30.08 in 10.0 mi Calm Calm - N/A   Clear
6:15 AM 47.5 °F 45.1 °F 92% 30.08 in 10.0 mi SE 3.5 mph - N/A   Clear
6:35 AM 47.8 °F 45.5 °F 92% 30.09 in 10.0 mi ESE 3.5 mph - N/A   Clear
6:55 AM 47.8 °F 45.5 °F 92% 30.09 in 10.0 mi Calm Calm - N/A   Clear
7:15 AM 49.5 °F 46.9 °F 91% 30.09 in 10.0 mi Calm Calm - N/A   Clear
7:35 AM 51.8 °F 48.7 °F 89% 30.09 in 10.0 mi Calm Calm - N/A   Clear
7:55 AM 52.0 °F 48.2 °F 87% 30.10 in 10.0 mi Calm Calm - N/A   Clear
8:15 AM 54.5 °F 48.9 °F 81% 30.09 in 10.0 mi ESE 4.6 mph - N/A   Clear
8:35 AM 56.8 °F 50.4 °F 79% 30.10 in 10.0 mi Calm Calm - N/A   Clear
8:55 AM 58.1 °F 50.2 °F 75% 30.10 in 10.0 mi WNW 3.5 mph - N/A   Clear
9:15 AM 59.7 °F 50.2 °F 71% 30.10 in 10.0 mi Calm Calm - N/A   Clear
9:35 AM 64.4 °F 53.2 °F 67% 30.10 in 10.0 mi Calm Calm - N/A   Clear
9:55 AM 67.1 °F 54.7 °F 64% 30.10 in 10.0 mi SSW 3.5 mph - N/A   Clear
10:15 AM 67.1 °F 52.5 °F 59% 30.10 in 10.0 mi SSW 3.5 mph - N/A   Scattered Clouds
10:35 AM 68.7 °F 52.9 °F 57% 30.10 in 10.0 mi Calm Calm - N/A   Scattered Clouds
10:55 AM 69.6 °F 52.2 °F 54% 30.10 in 10.0 mi Calm Calm - N/A   Mostly Cloudy
11:15 AM 72.0 °F 55.0 °F 55% 30.10 in 10.0 mi NNW 3.5 mph - N/A   Overcast
11:35 AM 72.0 °F 53.2 °F 52% 30.10 in 10.0 mi Calm Calm - N/A   Mostly Cloudy
11:55 AM 72.0 °F 52.2 °F 50% 30.10 in 10.0 mi Calm Calm - N/A   Mostly Cloudy
12:15 PM 72.0 °F 54.3 °F 54% 30.10 in 10.0 mi Calm Calm - N/A   Scattered Clouds
12:35 PM 72.0 °F 51.1 °F 48% 30.10 in 10.0 mi WSW 3.5 mph - N/A   Mostly Cloudy
12:55 PM 72.0 °F 49.8 °F 46% 30.10 in 10.0 mi North 4.6 mph - N/A   Mostly Cloudy
1:15 PM 73.2 °F 51.6 °F 47% 30.10 in 10.0 mi North 6.9 mph - N/A   Scattered Clouds
1:35 PM 73.2 °F 51.8 °F 47% 30.10 in 10.0 mi NW 4.6 mph - N/A   Mostly Cloudy
1:55 PM 74.5 °F 51.1 °F 44% 30.10 in 10.0 mi WNW 3.5 mph - N/A   Mostly Cloudy
2:15 PM 73.8 °F 50.7 °F 44% 30.10 in 10.0 mi NW 3.5 mph - N/A   Mostly Cloudy
2:35 PM 74.1 °F 50.9 °F 44% 30.09 in 10.0 mi NNW 3.5 mph - N/A   Overcast
2:55 PM 72.0 °F 47.5 °F 42% 30.09 in 7.0 mi Calm Calm - N/A   Overcast
3:15 PM 74.7 °F 47.5 °F 38% 30.08 in 10.0 mi NW 3.5 mph - N/A   Scattered Clouds
3:35 PM 74.5 °F 49.3 °F 41% 30.08 in 10.0 mi North 5.8 mph - N/A   Clear
4:15 PM 75.9 °F 48.0 °F 37% 30.08 in 10.0 mi NW 4.6 mph - N/A   Scattered Clouds
4:35 PM 74.7 °F 46.8 °F 37% 30.08 in 10.0 mi North 4.6 mph - N/A   Clear
4:55 PM 75.4 °F 46.2 °F 35% 30.08 in 10.0 mi NNW 3.5 mph - N/A   Clear
5:15 PM 74.7 °F 44.2 °F 34% 30.08 in 10.0 mi North 5.8 mph - N/A   Clear
5:35 PM 74.5 °F 43.9 °F 33% 30.08 in 10.0 mi North 5.8 mph - N/A   Clear
5:55 PM 74.5 °F 43.5 °F 33% 30.09 in 10.0 mi North 3.5 mph - N/A   Clear
6:15 PM 74.5 °F 44.2 °F 34% 30.09 in 10.0 mi NNW 3.5 mph - N/A   Clear
6:35 PM 72.0 °F 45.1 °F 38% 30.09 in 10.0 mi Calm Calm - N/A   Clear
6:55 PM 70.2 °F 47.8 °F 45% 30.09 in 10.0 mi Calm Calm - N/A   Clear
7:15 PM 67.1 °F 45.9 °F 46% 30.09 in 10.0 mi Calm Calm - N/A   Clear
7:35 PM 66.7 °F 49.5 °F 54% 30.10 in 10.0 mi Calm Calm - N/A   Clear
7:55 PM 61.9 °F 46.0 °F 56% 30.10 in 10.0 mi Calm Calm - N/A   Clear
8:15 PM 60.1 °F 49.3 °F 67% 30.11 in 10.0 mi Calm Calm - N/A   Clear
8:35 PM 59.0 °F 49.6 °F 71% 30.11 in 10.0 mi Calm Calm - N/A   Clear
8:55 PM 56.8 °F 47.7 °F 71% 30.11 in 10.0 mi Calm Calm - N/A   Clear
9:15 PM 56.8 °F 49.8 °F 77% 30.12 in 10.0 mi SSE 3.5 mph - N/A   Clear
9:35 PM 56.8 °F 50.4 °F 79% 30.11 in 10.0 mi Calm Calm - N/A   Clear
9:55 PM 54.5 °F 49.3 °F 83% 30.11 in 10.0 mi SE 3.5 mph - N/A   Clear
10:15 PM 55.0 °F 49.1 °F 80% 30.12 in 10.0 mi ESE 3.5 mph - N/A   Clear
10:35 PM 54.5 °F 48.6 °F 80% 30.11 in 10.0 mi ESE 4.6 mph - N/A   Clear
10:55 PM 54.5 °F 48.6 °F 80% 30.12 in 10.0 mi SE 4.6 mph - N/A   Clear
11:15 PM 54.5 °F 49.1 °F 82% 30.12 in 10.0 mi ESE 4.6 mph - N/A   Clear